TimeCST,TemperatureF,Dew PointF,Humidity,Sea Level PressureIn,VisibilityMPH,Wind Direction,Wind SpeedMPH,Gust SpeedMPH,PrecipitationIn,Events,Conditions,WindDirDegrees,DateUTC
12:56 AM,39.9,37.9,93,30.32,10.0,Calm,Calm,-,N/A,,Clear,0,2013-02-01 06:56:00
1:56 AM,48.0,39.9,74,30.33,10.0,WNW,4.6,-,N/A,,Clear,300,2013-02-01 07:56:00
2:56 AM,48.9,37.9,66,30.32,10.0,WNW,6.9,-,N/A,,Clear,300,2013-02-01 08:56:00
3:56 AM,48.0,37.0,66,30.30,10.0,WNW,5.8,-,N/A,,Clear,300,2013-02-01 09:56:00
4:56 AM,46.9,36.0,66,30.32,10.0,WNW,4.6,-,N/A,,Clear,300,2013-02-01 10:56:00
5:56 AM,46.9,36.0,66,30.35,10.0,WNW,4.6,-,N/A,,Mostly Cloudy,300,2013-02-01 11:56:00
6:56 AM,46.9,36.0,66,30.37,10.0,NNW,5.8,-,N/A,,Mostly Cloudy,330,2013-02-01 12:56:00
7:56 AM,48.9,35.1,59,30.38,10.0,NW,6.9,-,N/A,,Mostly Cloudy,320,2013-02-01 13:56:00
8:56 AM,50.0,35.1,57,30.39,10.0,NNW,9.2,-,N/A,,Mostly Cloudy,330,2013-02-01 14:56:00
9:56 AM,50.0,35.1,57,30.39,10.0,NNW,9.2,20.7,N/A,,Mostly Cloudy,340,2013-02-01 15:56:00
10:56 AM,52.0,36.0,54,30.39,10.0,North,10.4,-,N/A,,Mostly Cloudy,360,2013-02-01 16:56:00
11:56 AM,55.9,37.0,49,30.37,10.0,North,10.4,-,N/A,,Mostly Cloudy,360,2013-02-01 17:56:00
12:56 PM,61.0,37.9,42,30.34,10.0,North,10.4,-,N/A,,Scattered Clouds,10,2013-02-01 18:56:00
1:56 PM,63.0,36.0,37,30.33,10.0,NW,8.1,-,N/A,,Scattered Clouds,320,2013-02-01 19:56:00
2:56 PM,63.0,35.1,35,30.32,10.0,North,8.1,-,N/A,,Partly Cloudy,10,2013-02-01 20:56:00
3:56 PM,61.0,35.1,38,30.32,10.0,North,4.6,-,N/A,,Partly Cloudy,360,2013-02-01 21:56:00
4:56 PM,59.0,33.1,38,30.32,10.0,North,4.6,-,N/A,,Scattered Clouds,350,2013-02-01 22:56:00
5:56 PM,53.1,33.1,47,30.33,10.0,North,3.5,-,N/A,,Scattered Clouds,360,2013-02-01 23:56:00
6:56 PM,48.0,34.0,58,30.34,10.0,NNE,5.8,-,N/A,,Scattered Clouds,30,2013-02-02 00:56:00
7:56 PM,46.9,33.1,59,30.35,10.0,NNE,4.6,-,N/A,,Partly Cloudy,30,2013-02-02 01:56:00
8:56 PM,41.0,34.0,76,30.36,10.0,North,3.5,-,N/A,,Clear,350,2013-02-02 02:56:00
9:56 PM,39.0,30.9,73,30.37,10.0,North,4.6,-,N/A,,Clear,360,2013-02-02 03:56:00
10:56 PM,41.0,30.0,65,30.35,10.0,NNE,5.8,-,N/A,,Clear,20,2013-02-02 04:56:00
11:56 PM,39.9,28.9,65,30.35,10.0,NNE,4.6,-,N/A,,Clear,20,2013-02-02 05:56:00